Location: Gro� Glienicke
(52.4675°N, 13.1079°E)
Time: 17:27:48
(UTC+00:00)

USA 215 - Pass Details

Date: 06 July 2020
Orbit: 1102 x 1106 km, 123.0° (Epoch: 08 August)

Event Time Altitude Azimuth Distance (km) Brightness Sun altitude
Rises 23:39:49 0° 72° (ENE) 3,926 6.5 -14.7°
Reaches altitude 10° 23:42:19 10° 69° (ENE) 2,967 5.9 -14.7°
Maximum altitude 23:48:46 65° 350° (N) 1,209 3.7 -14.6°
Drops below altitude 10° 23:55:14 10° 271° (W) 2,962 5.4 -14.4°
Sets 23:57:43 0° 268° (W) 3,919 6.0 -14.3°
